Year,Month,Day,Hour,Minute,Value (Times are PST for temperature in C)
2008,07,12,00,00,13.60
2008,07,12,00,01,13.60
2008,07,12,00,02,13.60
2008,07,12,00,03,13.60
2008,07,12,00,04,13.60
2008,07,12,00,05,13.60
2008,07,12,00,06,13.50
2008,07,12,00,07,13.50
2008,07,12,00,08,13.50
2008,07,12,00,09,13.40
2008,07,12,00,10,13.40
2008,07,12,00,11,13.40
2008,07,12,00,12,13.40
2008,07,12,00,13,13.40
2008,07,12,00,14,13.40
2008,07,12,00,15,13.40
2008,07,12,00,16,13.40
2008,07,12,00,17,13.40
2008,07,12,00,18,13.30
2008,07,12,00,19,13.30
2008,07,12,00,20,13.30
2008,07,12,00,21,13.30
2008,07,12,00,22,13.30
2008,07,12,00,23,13.30
2008,07,12,00,24,13.30
2008,07,12,00,25,13.30
2008,07,12,00,26,13.30
2008,07,12,00,27,13.30
2008,07,12,00,28,13.30
2008,07,12,00,29,13.30
2008,07,12,00,30,13.30
2008,07,12,00,31,13.30
2008,07,12,00,32,13.30
2008,07,12,00,33,13.30
2008,07,12,00,34,13.30
2008,07,12,00,35,13.20
2008,07,12,00,36,13.20
2008,07,12,00,37,13.20
2008,07,12,00,38,13.20
2008,07,12,00,39,13.20
2008,07,12,00,40,13.20
2008,07,12,00,41,13.20
2008,07,12,00,42,13.20
2008,07,12,00,43,13.20
2008,07,12,00,44,13.10
2008,07,12,00,45,13.10
2008,07,12,00,46,13.10
2008,07,12,00,47,13.10
2008,07,12,00,48,13.10
2008,07,12,00,49,13.10
2008,07,12,00,50,13.00
2008,07,12,00,51,13.00
2008,07,12,00,52,13.00
2008,07,12,00,53,13.00
2008,07,12,00,54,12.90
2008,07,12,00,55,13.00
2008,07,12,00,56,13.10
2008,07,12,00,57,13.10
2008,07,12,00,58,13.10
2008,07,12,00,59,13.20
2008,07,12,01,00,13.20
2008,07,12,01,01,13.20
2008,07,12,01,02,13.20
2008,07,12,01,03,13.20
2008,07,12,01,04,13.10
2008,07,12,01,05,13.10
2008,07,12,01,06,13.10
2008,07,12,01,07,13.10
2008,07,12,01,08,13.10
2008,07,12,01,09,13.00
2008,07,12,01,10,13.00
2008,07,12,01,11,13.00
2008,07,12,01,12,12.90
2008,07,12,01,13,12.90
2008,07,12,01,14,12.90
2008,07,12,01,15,12.90
2008,07,12,01,16,12.90
2008,07,12,01,17,12.80
2008,07,12,01,18,12.80
2008,07,12,01,19,12.80
2008,07,12,01,20,12.80
2008,07,12,01,21,12.80
2008,07,12,01,22,12.80
2008,07,12,01,23,12.70
2008,07,12,01,24,12.70
2008,07,12,01,25,12.70
2008,07,12,01,26,12.70
2008,07,12,01,27,12.70
2008,07,12,01,28,12.60
2008,07,12,01,29,12.60
2008,07,12,01,30,12.60
2008,07,12,01,31,12.60
2008,07,12,01,32,12.60
2008,07,12,01,33,12.60
2008,07,12,01,34,12.60
2008,07,12,01,35,12.60
2008,07,12,01,36,12.60
2008,07,12,01,37,12.60
2008,07,12,01,38,12.60
2008,07,12,01,39,12.60
2008,07,12,01,40,12.50
2008,07,12,01,41,12.50
2008,07,12,01,42,12.50
2008,07,12,01,43,12.50
2008,07,12,01,44,12.50
2008,07,12,01,45,12.50
2008,07,12,01,46,12.40
2008,07,12,01,47,12.40
2008,07,12,01,48,12.40
2008,07,12,01,49,12.40
2008,07,12,01,50,12.40
2008,07,12,01,51,12.40
2008,07,12,01,52,12.40
2008,07,12,01,53,12.30
2008,07,12,01,54,12.30
2008,07,12,01,55,12.30
2008,07,12,01,56,12.30
2008,07,12,01,57,12.30
2008,07,12,01,58,12.20
2008,07,12,01,59,12.20
2008,07,12,02,00,12.20
2008,07,12,02,01,12.20
2008,07,12,02,02,12.20
2008,07,12,02,03,12.10
2008,07,12,02,04,12.10
2008,07,12,02,05,12.10
2008,07,12,02,06,12.10
2008,07,12,02,07,12.10
2008,07,12,02,08,12.10
2008,07,12,02,09,12.10
2008,07,12,02,10,12.00
2008,07,12,02,11,12.00
2008,07,12,02,12,12.00
2008,07,12,02,13,11.90
2008,07,12,02,14,11.90
2008,07,12,02,15,11.80
2008,07,12,02,16,11.80
2008,07,12,02,17,11.80
2008,07,12,02,18,11.80
2008,07,12,02,19,11.80
2008,07,12,02,20,11.80
2008,07,12,02,21,11.70
2008,07,12,02,22,11.70
2008,07,12,02,23,11.70
2008,07,12,02,24,11.70
2008,07,12,02,25,11.60
2008,07,12,02,26,11.60
2008,07,12,02,27,11.60
2008,07,12,02,28,11.60
2008,07,12,02,29,11.60
2008,07,12,02,30,11.50
2008,07,12,02,31,11.50
2008,07,12,02,32,11.50
2008,07,12,02,33,11.40
2008,07,12,02,34,11.40
2008,07,12,02,35,11.40
2008,07,12,02,36,11.40
2008,07,12,02,37,11.30
2008,07,12,02,38,11.30
2008,07,12,02,39,11.30
2008,07,12,02,40,11.30
2008,07,12,02,41,11.30
2008,07,12,02,42,11.20
2008,07,12,02,43,11.20
2008,07,12,02,44,11.20
2008,07,12,02,45,11.20
2008,07,12,02,46,11.20
2008,07,12,02,47,11.20
2008,07,12,02,48,11.20
2008,07,12,02,49,11.20
2008,07,12,02,50,11.10
2008,07,12,02,51,11.10
2008,07,12,02,52,11.10
2008,07,12,02,53,11.10
2008,07,12,02,54,11.10
2008,07,12,02,55,11.10
2008,07,12,02,56,11.10
2008,07,12,02,57,11.00
2008,07,12,02,58,11.00
2008,07,12,02,59,11.00
2008,07,12,03,00,11.00
2008,07,12,03,01,11.00
2008,07,12,03,02,10.90
2008,07,12,03,03,10.90
2008,07,12,03,04,10.90
2008,07,12,03,05,10.90
2008,07,12,03,06,10.90
2008,07,12,03,07,10.90
2008,07,12,03,08,10.90
2008,07,12,03,09,10.90
2008,07,12,03,10,10.80
2008,07,12,03,11,10.80
2008,07,12,03,12,10.80
2008,07,12,03,13,10.80
2008,07,12,03,14,10.80
2008,07,12,03,15,10.80
2008,07,12,03,16,10.80
2008,07,12,03,17,10.80
2008,07,12,03,18,10.80
2008,07,12,03,19,10.80
2008,07,12,03,20,10.70
2008,07,12,03,21,10.70
2008,07,12,03,22,10.70
2008,07,12,03,23,10.70
2008,07,12,03,24,10.70
2008,07,12,03,25,10.70
2008,07,12,03,26,10.70
2008,07,12,03,27,10.70
2008,07,12,03,28,10.70
2008,07,12,03,29,10.70
2008,07,12,03,30,10.70
2008,07,12,03,31,10.70
2008,07,12,03,32,10.60
2008,07,12,03,33,10.60
2008,07,12,03,34,10.60
2008,07,12,03,35,10.60
2008,07,12,03,36,10.60
2008,07,12,03,37,10.60
2008,07,12,03,38,10.60
2008,07,12,03,39,10.60
2008,07,12,03,40,10.60
2008,07,12,03,41,10.60
2008,07,12,03,42,10.60
2008,07,12,03,43,10.50
2008,07,12,03,44,10.50
2008,07,12,03,45,10.40
2008,07,12,03,46,10.40
2008,07,12,03,47,10.40
2008,07,12,03,48,10.40
2008,07,12,03,49,10.40
2008,07,12,03,50,10.30
2008,07,12,03,51,10.30
2008,07,12,03,52,10.30
2008,07,12,03,53,10.30
2008,07,12,03,54,10.30
2008,07,12,03,55,10.30
2008,07,12,03,56,10.20
2008,07,12,03,57,10.20
2008,07,12,03,58,10.20
2008,07,12,03,59,10.20
2008,07,12,04,00,10.20
2008,07,12,04,01,10.20
2008,07,12,04,02,10.20
2008,07,12,04,03,10.20
2008,07,12,04,04,10.20
2008,07,12,04,05,10.10
2008,07,12,04,06,10.10
2008,07,12,04,07,10.10
2008,07,12,04,08,10.10
2008,07,12,04,09,10.10
2008,07,12,04,10,10.10
2008,07,12,04,11,10.10
2008,07,12,04,12,10.00
2008,07,12,04,13,10.00
2008,07,12,04,14,10.00
2008,07,12,04,15,10.00
2008,07,12,04,16,9.90
2008,07,12,04,17,9.90
2008,07,12,04,18,9.90
2008,07,12,04,19,9.90
2008,07,12,04,20,9.90
2008,07,12,04,21,9.90
2008,07,12,04,22,9.80
2008,07,12,04,23,9.80
2008,07,12,04,24,9.80
2008,07,12,04,25,9.80
2008,07,12,04,26,9.80
2008,07,12,04,27,9.80
2008,07,12,04,28,9.80
2008,07,12,04,29,9.80
2008,07,12,04,30,9.80
2008,07,12,04,31,9.80
2008,07,12,04,32,9.70
2008,07,12,04,33,9.70
2008,07,12,04,34,9.70
2008,07,12,04,35,9.70
2008,07,12,04,36,9.70
2008,07,12,04,37,9.70
2008,07,12,04,38,9.70
2008,07,12,04,39,9.70
2008,07,12,04,40,9.60
2008,07,12,04,41,9.60
2008,07,12,04,42,9.60
2008,07,12,04,43,9.60
2008,07,12,04,44,9.60
2008,07,12,04,45,9.60
2008,07,12,04,46,9.60
2008,07,12,04,47,9.60
2008,07,12,04,48,9.50
2008,07,12,04,49,9.50
2008,07,12,04,50,9.50
2008,07,12,04,51,9.50
2008,07,12,04,52,9.40
2008,07,12,04,53,9.40
2008,07,12,04,54,9.40
2008,07,12,04,55,9.40
2008,07,12,04,56,9.40
2008,07,12,04,57,9.40
2008,07,12,04,58,9.30
2008,07,12,04,59,9.30
2008,07,12,05,00,9.30
2008,07,12,05,01,9.30
2008,07,12,05,02,9.30
2008,07,12,05,03,9.30
2008,07,12,05,04,9.30
2008,07,12,05,05,9.30
2008,07,12,05,06,9.30
2008,07,12,05,07,9.30
2008,07,12,05,08,9.30
2008,07,12,05,09,9.30
2008,07,12,05,10,9.30
2008,07,12,05,11,9.30
2008,07,12,05,12,9.30
2008,07,12,05,13,9.30
2008,07,12,05,14,9.20
2008,07,12,05,15,9.20
2008,07,12,05,16,9.20
2008,07,12,05,17,9.20
2008,07,12,05,18,9.20
2008,07,12,05,19,9.20
2008,07,12,05,20,9.20
2008,07,12,05,21,9.20
2008,07,12,05,22,9.20
2008,07,12,05,23,9.20
2008,07,12,05,24,9.20
2008,07,12,05,25,9.20
2008,07,12,05,26,9.20
2008,07,12,05,27,9.10
2008,07,12,05,28,9.10
2008,07,12,05,29,9.10
2008,07,12,05,30,9.10
2008,07,12,05,31,9.10
2008,07,12,05,32,9.10
2008,07,12,05,33,9.10
2008,07,12,05,34,9.10
2008,07,12,05,35,9.10
2008,07,12,05,36,9.10
2008,07,12,05,37,9.10
2008,07,12,05,38,9.10
2008,07,12,05,39,9.10
2008,07,12,05,40,9.10
2008,07,12,05,41,9.10
2008,07,12,05,42,9.10
2008,07,12,05,43,9.00
2008,07,12,05,44,9.00
2008,07,12,05,45,9.00
2008,07,12,05,46,9.00
2008,07,12,05,47,9.00
2008,07,12,05,48,8.90
2008,07,12,05,49,8.90
2008,07,12,05,50,8.90
2008,07,12,05,51,8.90
2008,07,12,05,52,8.90
2008,07,12,05,53,8.90
2008,07,12,05,54,8.90
2008,07,12,05,55,8.90
2008,07,12,05,56,8.90
2008,07,12,05,57,8.90
2008,07,12,05,58,8.90
2008,07,12,05,59,8.90
2008,07,12,06,00,8.90
2008,07,12,06,01,8.90
2008,07,12,06,02,8.90
2008,07,12,06,03,8.90
2008,07,12,06,04,8.90
2008,07,12,06,05,8.90
2008,07,12,06,06,8.90
2008,07,12,06,07,8.90
2008,07,12,06,08,8.90
2008,07,12,06,09,8.90
2008,07,12,06,10,8.90
2008,07,12,06,11,8.90
2008,07,12,06,12,8.90
2008,07,12,06,13,8.90
2008,07,12,06,14,8.90
2008,07,12,06,15,8.90
2008,07,12,06,16,8.90
2008,07,12,06,17,8.90
2008,07,12,06,18,8.90
2008,07,12,06,19,8.90
2008,07,12,06,20,8.90
2008,07,12,06,21,8.90
2008,07,12,06,22,8.90
2008,07,12,06,23,8.90
2008,07,12,06,24,8.90
2008,07,12,06,25,8.90
2008,07,12,06,26,9.00
2008,07,12,06,27,9.00
2008,07,12,06,28,9.00
2008,07,12,06,29,9.00
2008,07,12,06,30,9.00
2008,07,12,06,31,9.00
2008,07,12,06,32,9.00
2008,07,12,06,33,9.00
2008,07,12,06,34,9.00
2008,07,12,06,35,9.00
2008,07,12,06,36,9.10
2008,07,12,06,37,9.10
2008,07,12,06,38,9.10
2008,07,12,06,39,9.10
2008,07,12,06,40,9.10
2008,07,12,06,41,9.10
2008,07,12,06,42,9.20
2008,07,12,06,43,9.20
2008,07,12,06,44,9.20
2008,07,12,06,45,9.20
2008,07,12,06,46,9.20
2008,07,12,06,47,9.20
2008,07,12,06,48,9.30
2008,07,12,06,49,9.30
2008,07,12,06,50,9.30
2008,07,12,06,51,9.30
2008,07,12,06,52,9.40
2008,07,12,06,53,9.40
2008,07,12,06,54,9.40
2008,07,12,06,55,9.40
2008,07,12,06,56,9.40
2008,07,12,06,57,9.40
2008,07,12,06,58,9.40
2008,07,12,06,59,9.40
2008,07,12,07,00,9.40
2008,07,12,07,01,9.40
2008,07,12,07,02,9.40
2008,07,12,07,03,9.50
2008,07,12,07,04,9.50
2008,07,12,07,05,9.60
2008,07,12,07,06,9.60
2008,07,12,07,07,9.60
2008,07,12,07,08,9.60
2008,07,12,07,09,9.60
2008,07,12,07,10,9.60
2008,07,12,07,11,9.70
2008,07,12,07,12,9.70
2008,07,12,07,13,9.70
2008,07,12,07,14,9.70
2008,07,12,07,15,9.80
2008,07,12,07,16,9.80
2008,07,12,07,17,9.80
2008,07,12,07,18,9.90
2008,07,12,07,19,10.00
2008,07,12,07,20,10.10
2008,07,12,07,21,10.10
2008,07,12,07,22,10.20
2008,07,12,07,23,10.30
2008,07,12,07,24,10.30
2008,07,12,07,25,10.40
2008,07,12,07,26,10.50
2008,07,12,07,27,10.60
2008,07,12,07,28,10.70
2008,07,12,07,29,10.80
2008,07,12,07,30,10.80
2008,07,12,07,31,10.90
2008,07,12,07,32,11.00
2008,07,12,07,33,11.10
2008,07,12,07,34,11.10
2008,07,12,07,35,11.20
2008,07,12,07,36,11.30
2008,07,12,07,37,11.40
2008,07,12,07,38,11.40
2008,07,12,07,39,11.50
2008,07,12,07,40,11.60
2008,07,12,07,41,11.70
2008,07,12,07,42,11.70
2008,07,12,07,43,11.80
2008,07,12,07,44,11.80
2008,07,12,07,45,11.90
2008,07,12,07,46,12.00
2008,07,12,07,47,12.10
2008,07,12,07,48,12.20
2008,07,12,07,49,12.30
2008,07,12,07,50,12.40
2008,07,12,07,51,12.50
2008,07,12,07,52,12.60
2008,07,12,07,53,12.70
2008,07,12,07,54,12.80
2008,07,12,07,55,13.00
2008,07,12,07,56,13.10
2008,07,12,07,57,13.30
2008,07,12,07,58,13.40
2008,07,12,07,59,13.50
2008,07,12,08,00,13.60
2008,07,12,08,01,13.80
2008,07,12,08,02,13.80
2008,07,12,08,03,13.90
2008,07,12,08,04,14.10
2008,07,12,08,05,14.20
2008,07,12,08,06,14.30
2008,07,12,08,07,14.50
2008,07,12,08,08,14.70
2008,07,12,08,09,14.90
2008,07,12,08,10,15.00
2008,07,12,08,11,15.10
2008,07,12,08,12,15.30
2008,07,12,08,13,15.50
2008,07,12,08,14,15.70
2008,07,12,08,15,15.90
2008,07,12,08,16,16.00
2008,07,12,08,17,16.20
2008,07,12,08,18,16.20
2008,07,12,08,19,16.30
2008,07,12,08,20,16.40
2008,07,12,08,21,16.50
2008,07,12,08,22,16.60
2008,07,12,08,23,16.70
2008,07,12,08,24,16.70
2008,07,12,08,25,16.80
2008,07,12,08,26,16.80
2008,07,12,08,27,16.90
2008,07,12,08,28,16.90
2008,07,12,08,29,17.00
2008,07,12,08,30,17.10
2008,07,12,08,31,17.20
2008,07,12,08,32,17.30
2008,07,12,08,33,17.40
2008,07,12,08,34,17.50
2008,07,12,08,35,17.60
2008,07,12,08,36,17.70
2008,07,12,08,37,17.70
2008,07,12,08,38,17.80
2008,07,12,08,39,17.80
2008,07,12,08,40,17.90
2008,07,12,08,41,17.90
2008,07,12,08,42,18.00
2008,07,12,08,43,18.00
2008,07,12,08,44,18.10
2008,07,12,08,45,18.20
2008,07,12,08,46,18.20
2008,07,12,08,47,18.20
2008,07,12,08,48,18.20
2008,07,12,08,49,18.20
2008,07,12,08,50,18.20
2008,07,12,08,51,18.20
2008,07,12,08,52,18.20
2008,07,12,08,53,18.20
2008,07,12,08,54,18.20
2008,07,12,08,55,18.20
2008,07,12,08,56,18.10
2008,07,12,08,57,18.00
2008,07,12,08,58,18.00
2008,07,12,08,59,18.00
2008,07,12,09,00,18.00
2008,07,12,09,01,18.00
2008,07,12,09,02,18.00
2008,07,12,09,03,18.10
2008,07,12,09,04,18.10
2008,07,12,09,05,18.10
2008,07,12,09,06,18.20
2008,07,12,09,07,18.20
2008,07,12,09,08,18.20
2008,07,12,09,09,18.30
2008,07,12,09,10,18.40
2008,07,12,09,11,18.50
2008,07,12,09,12,18.60
2008,07,12,09,13,18.60
2008,07,12,09,14,18.70
2008,07,12,09,15,18.80
2008,07,12,09,16,18.80
2008,07,12,09,17,18.90
2008,07,12,09,18,19.00
2008,07,12,09,19,19.00
2008,07,12,09,20,19.10
2008,07,12,09,21,19.20
2008,07,12,09,22,19.20
2008,07,12,09,23,19.20
2008,07,12,09,24,19.30
2008,07,12,09,25,19.30
2008,07,12,09,26,19.40
2008,07,12,09,27,19.40
2008,07,12,09,28,19.50
2008,07,12,09,29,19.60
2008,07,12,09,30,19.70
2008,07,12,09,31,19.70
2008,07,12,09,32,19.80
2008,07,12,09,33,19.90
2008,07,12,09,34,20.00
2008,07,12,09,35,20.10
2008,07,12,09,36,20.10
2008,07,12,09,37,20.20
2008,07,12,09,38,20.30
2008,07,12,09,39,20.30
2008,07,12,09,40,20.40
2008,07,12,09,41,20.50
2008,07,12,09,42,20.60
2008,07,12,09,43,20.70
2008,07,12,09,44,20.80
2008,07,12,09,45,20.90
2008,07,12,09,46,21.00
2008,07,12,09,47,21.10
2008,07,12,09,48,21.00
2008,07,12,09,49,21.00
2008,07,12,09,50,21.00
2008,07,12,09,51,21.00
2008,07,12,09,52,21.00
2008,07,12,09,53,21.10
2008,07,12,09,54,21.10
2008,07,12,09,55,21.20
2008,07,12,09,56,21.20
2008,07,12,09,57,21.30
2008,07,12,09,58,21.30
2008,07,12,09,59,21.40
2008,07,12,10,00,21.50
2008,07,12,10,01,21.60
2008,07,12,10,02,21.70
2008,07,12,10,03,21.80
2008,07,12,10,04,21.80
2008,07,12,10,05,21.90
2008,07,12,10,06,22.00
2008,07,12,10,07,22.10
2008,07,12,10,08,22.10
2008,07,12,10,09,22.20
2008,07,12,10,10,22.30
2008,07,12,10,11,22.40
2008,07,12,10,12,22.50
2008,07,12,10,13,22.60
2008,07,12,10,14,22.80
2008,07,12,10,15,22.90
2008,07,12,10,16,23.00
2008,07,12,10,17,23.00
2008,07,12,10,18,22.90
2008,07,12,10,19,22.90
2008,07,12,10,20,22.90
2008,07,12,10,21,22.90
2008,07,12,10,22,22.90
2008,07,12,10,23,22.90
2008,07,12,10,24,22.90
2008,07,12,10,25,23.00
2008,07,12,10,26,23.00
2008,07,12,10,27,23.00
2008,07,12,10,28,23.00
2008,07,12,10,29,23.00
2008,07,12,10,30,23.10
2008,07,12,10,31,23.20
2008,07,12,10,32,23.30
2008,07,12,10,33,23.50
2008,07,12,10,34,23.60
2008,07,12,10,35,23.80
2008,07,12,10,36,23.90
2008,07,12,10,37,23.90
2008,07,12,10,38,24.00
2008,07,12,10,39,24.00
2008,07,12,10,40,24.00
2008,07,12,10,41,24.10
2008,07,12,10,42,24.10
2008,07,12,10,43,24.20
2008,07,12,10,44,24.20
2008,07,12,10,45,24.20
2008,07,12,10,46,24.20
2008,07,12,10,47,24.20
2008,07,12,10,48,24.20
2008,07,12,10,49,24.20
2008,07,12,10,50,24.20
2008,07,12,10,51,24.20
2008,07,12,10,52,24.30
2008,07,12,10,53,24.30
2008,07,12,10,54,24.40
2008,07,12,10,55,24.50
2008,07,12,10,56,24.40
2008,07,12,10,57,24.40
2008,07,12,10,58,24.40
2008,07,12,10,59,24.40
2008,07,12,11,00,24.50
2008,07,12,11,01,24.50
2008,07,12,11,02,24.30
2008,07,12,11,03,24.30
2008,07,12,11,04,24.30
2008,07,12,11,05,24.40
2008,07,12,11,06,24.40
2008,07,12,11,07,24.50
2008,07,12,11,08,24.50
2008,07,12,11,09,24.60
2008,07,12,11,10,24.70
2008,07,12,11,11,24.70
2008,07,12,11,12,24.60
2008,07,12,11,13,24.70
2008,07,12,11,14,24.70
2008,07,12,11,15,24.60
2008,07,12,11,16,24.60
2008,07,12,11,17,24.50
2008,07,12,11,18,24.40
2008,07,12,11,19,24.30
2008,07,12,11,20,24.40
2008,07,12,11,21,24.50
2008,07,12,11,22,24.60
2008,07,12,11,23,24.70
2008,07,12,11,24,24.90
2008,07,12,11,25,25.10
2008,07,12,11,26,25.40
2008,07,12,11,27,25.60
2008,07,12,11,28,25.90
2008,07,12,11,29,26.00
2008,07,12,11,30,26.10
2008,07,12,11,31,26.20
2008,07,12,11,32,26.30
2008,07,12,11,33,26.40
2008,07,12,11,34,26.40
2008,07,12,11,35,26.40
2008,07,12,11,36,26.30
2008,07,12,11,37,26.20
2008,07,12,11,38,26.10
2008,07,12,11,39,25.90
2008,07,12,11,40,25.70
2008,07,12,11,41,25.60
2008,07,12,11,42,25.50
2008,07,12,11,43,25.40
2008,07,12,11,44,25.40
2008,07,12,11,45,25.50
2008,07,12,11,46,25.60
2008,07,12,11,47,25.70
2008,07,12,11,48,25.80
2008,07,12,11,49,25.80
2008,07,12,11,50,25.90
2008,07,12,11,51,25.80
2008,07,12,11,52,25.70
2008,07,12,11,53,25.60
2008,07,12,11,54,25.50
2008,07,12,11,55,25.40
2008,07,12,11,56,25.40
2008,07,12,11,57,25.50
2008,07,12,11,58,25.60
2008,07,12,11,59,25.80
2008,07,12,12,00,25.90
2008,07,12,12,01,25.90
2008,07,12,12,02,26.00
2008,07,12,12,03,26.10
2008,07,12,12,04,26.10
2008,07,12,12,05,26.20
2008,07,12,12,06,26.30
2008,07,12,12,07,26.30
2008,07,12,12,08,26.40
2008,07,12,12,09,26.40
2008,07,12,12,10,26.40
2008,07,12,12,11,26.40
2008,07,12,12,12,26.30
2008,07,12,12,13,26.30
2008,07,12,12,14,26.40
2008,07,12,12,15,26.40
2008,07,12,12,16,26.50
2008,07,12,12,17,26.70
2008,07,12,12,18,26.90
2008,07,12,12,19,27.10
2008,07,12,12,20,27.30
2008,07,12,12,21,27.40
2008,07,12,12,22,27.60
2008,07,12,12,23,27.60
2008,07,12,12,24,27.60
2008,07,12,12,25,27.50
2008,07,12,12,26,27.40
2008,07,12,12,27,27.30
2008,07,12,12,28,27.30
2008,07,12,12,29,27.20
2008,07,12,12,30,27.20
2008,07,12,12,31,27.20
2008,07,12,12,32,27.20
2008,07,12,12,33,27.30
2008,07,12,12,34,27.30
2008,07,12,12,35,27.30
2008,07,12,12,36,27.30
2008,07,12,12,37,27.30
2008,07,12,12,38,27.30
2008,07,12,12,39,27.30
2008,07,12,12,40,27.30
2008,07,12,12,41,27.40
2008,07,12,12,42,27.40
2008,07,12,12,43,27.40
2008,07,12,12,44,27.50
2008,07,12,12,45,27.70
2008,07,12,12,46,27.80
2008,07,12,12,47,28.00
2008,07,12,12,48,28.10
2008,07,12,12,49,28.30
2008,07,12,12,50,28.50
2008,07,12,12,51,28.60
2008,07,12,12,52,28.80
2008,07,12,12,53,28.90
2008,07,12,12,54,28.90
2008,07,12,12,55,28.80
2008,07,12,12,56,28.80
2008,07,12,12,57,28.80
2008,07,12,12,58,28.80
2008,07,12,12,59,28.80
2008,07,12,13,00,28.80
2008,07,12,13,01,28.70
2008,07,12,13,02,28.60
2008,07,12,13,03,28.50
2008,07,12,13,04,28.50
2008,07,12,13,05,28.40
2008,07,12,13,06,28.50
2008,07,12,13,07,28.50
2008,07,12,13,08,28.50
2008,07,12,13,09,28.60
2008,07,12,13,10,28.70
2008,07,12,13,11,28.80
2008,07,12,13,12,28.90
2008,07,12,13,13,28.90
2008,07,12,13,14,29.10
2008,07,12,13,15,29.20
2008,07,12,13,16,29.30
2008,07,12,13,17,29.40
2008,07,12,13,18,29.30
2008,07,12,13,19,29.30
2008,07,12,13,20,29.20
2008,07,12,13,21,29.20
2008,07,12,13,22,29.20
2008,07,12,13,23,29.10
2008,07,12,13,24,29.10
2008,07,12,13,25,29.20
2008,07,12,13,26,29.30
2008,07,12,13,27,29.40
2008,07,12,13,28,29.50
2008,07,12,13,29,29.50
2008,07,12,13,30,29.40
2008,07,12,13,31,29.40
2008,07,12,13,32,29.20
2008,07,12,13,33,29.20
2008,07,12,13,34,29.20
2008,07,12,13,35,29.10
2008,07,12,13,36,29.00
2008,07,12,13,37,29.00
2008,07,12,13,38,28.90
2008,07,12,13,39,29.00
2008,07,12,13,40,29.10
2008,07,12,13,41,29.10
2008,07,12,13,42,29.20
2008,07,12,13,43,29.30
2008,07,12,13,44,29.20
2008,07,12,13,45,29.30
2008,07,12,13,46,29.30
2008,07,12,13,47,29.30
2008,07,12,13,48,29.30
2008,07,12,13,49,29.30
2008,07,12,13,50,29.40
2008,07,12,13,51,29.40
2008,07,12,13,52,29.30
2008,07,12,13,53,29.30
2008,07,12,13,54,29.40
2008,07,12,13,55,29.40
2008,07,12,13,56,29.30
2008,07,12,13,57,29.20
2008,07,12,13,58,29.20
2008,07,12,13,59,29.20
2008,07,12,14,00,29.20
2008,07,12,14,01,29.30
2008,07,12,14,02,29.50
2008,07,12,14,03,29.60
2008,07,12,14,04,29.70
2008,07,12,14,05,29.80
2008,07,12,14,06,29.90
2008,07,12,14,07,30.00
2008,07,12,14,08,30.00
2008,07,12,14,09,30.10
2008,07,12,14,10,30.20
2008,07,12,14,11,30.20
2008,07,12,14,12,30.30
2008,07,12,14,13,30.30
2008,07,12,14,14,30.40
2008,07,12,14,15,30.50
2008,07,12,14,16,30.50
2008,07,12,14,17,30.50
2008,07,12,14,18,30.50
2008,07,12,14,19,30.30
2008,07,12,14,20,30.20
2008,07,12,14,21,30.10
2008,07,12,14,22,30.10
2008,07,12,14,23,30.20
2008,07,12,14,24,30.20
2008,07,12,14,25,30.20
2008,07,12,14,26,30.20
2008,07,12,14,27,30.10
2008,07,12,14,28,30.10
2008,07,12,14,29,30.10
2008,07,12,14,30,30.10
2008,07,12,14,31,30.10
2008,07,12,14,32,30.10
2008,07,12,14,33,30.10
2008,07,12,14,34,30.10
2008,07,12,14,35,30.20
2008,07,12,14,36,30.10
2008,07,12,14,37,30.10
2008,07,12,14,38,30.10
2008,07,12,14,39,30.10
2008,07,12,14,40,30.10
2008,07,12,14,41,30.10
2008,07,12,14,42,30.10
2008,07,12,14,43,30.20
2008,07,12,14,44,30.20
2008,07,12,14,45,30.30
2008,07,12,14,46,30.40
2008,07,12,14,47,30.40
2008,07,12,14,48,30.40
2008,07,12,14,49,30.30
2008,07,12,14,50,30.10
2008,07,12,14,51,30.00
2008,07,12,14,52,29.80
2008,07,12,14,53,29.70
2008,07,12,14,54,29.70
2008,07,12,14,55,29.70
2008,07,12,14,56,29.70
2008,07,12,14,57,29.80
2008,07,12,14,58,29.90
2008,07,12,14,59,30.00
2008,07,12,15,00,30.10
2008,07,12,15,01,30.10
2008,07,12,15,02,30.10
2008,07,12,15,03,30.10
2008,07,12,15,04,30.20
2008,07,12,15,05,30.30
2008,07,12,15,06,30.20
2008,07,12,15,07,30.00
2008,07,12,15,08,29.80
2008,07,12,15,09,29.80
2008,07,12,15,10,29.70
2008,07,12,15,11,29.60
2008,07,12,15,12,29.60
2008,07,12,15,13,29.60
2008,07,12,15,14,29.70
2008,07,12,15,15,29.70
2008,07,12,15,16,29.60
2008,07,12,15,17,29.60
2008,07,12,15,18,29.70
2008,07,12,15,19,29.70
2008,07,12,15,20,29.70
2008,07,12,15,21,29.70
2008,07,12,15,22,29.70
2008,07,12,15,23,29.70
2008,07,12,15,24,29.70
2008,07,12,15,25,29.70
2008,07,12,15,26,29.70
2008,07,12,15,27,29.70
2008,07,12,15,28,29.60
2008,07,12,15,29,29.50
2008,07,12,15,30,29.40
2008,07,12,15,31,29.30
2008,07,12,15,32,29.30
2008,07,12,15,33,29.40
2008,07,12,15,34,29.50
2008,07,12,15,35,29.70
2008,07,12,15,36,29.90
2008,07,12,15,37,30.00
2008,07,12,15,38,30.10
2008,07,12,15,39,30.10
2008,07,12,15,40,30.20
2008,07,12,15,41,30.20
2008,07,12,15,42,30.30
2008,07,12,15,43,30.30
2008,07,12,15,44,30.20
2008,07,12,15,45,30.10
2008,07,12,15,46,30.20
2008,07,12,15,47,30.20
2008,07,12,15,48,30.10
2008,07,12,15,49,29.90
2008,07,12,15,50,29.80
2008,07,12,15,51,29.70
2008,07,12,15,52,29.70
2008,07,12,15,53,29.70
2008,07,12,15,54,29.70
2008,07,12,15,55,29.60
2008,07,12,15,56,29.50
2008,07,12,15,57,29.50
2008,07,12,15,58,29.40
2008,07,12,15,59,29.20
2008,07,12,16,00,29.00
2008,07,12,16,01,28.80
2008,07,12,16,02,28.70
2008,07,12,16,03,28.70
2008,07,12,16,04,28.60
2008,07,12,16,05,28.60
2008,07,12,16,06,28.50
2008,07,12,16,07,28.50
2008,07,12,16,08,28.40
2008,07,12,16,09,28.40
2008,07,12,16,10,28.40
2008,07,12,16,11,28.40
2008,07,12,16,12,28.50
2008,07,12,16,13,28.50
2008,07,12,16,14,28.50
2008,07,12,16,15,28.60
2008,07,12,16,16,28.60
2008,07,12,16,17,28.60
2008,07,12,16,18,28.60
2008,07,12,16,19,28.70
2008,07,12,16,20,28.80
2008,07,12,16,21,28.80
2008,07,12,16,22,28.90
2008,07,12,16,23,28.80
2008,07,12,16,24,28.70
2008,07,12,16,25,28.70
2008,07,12,16,26,28.70
2008,07,12,16,27,28.70
2008,07,12,16,28,28.80
2008,07,12,16,29,28.80
2008,07,12,16,30,28.80
2008,07,12,16,31,28.80
2008,07,12,16,32,28.80
2008,07,12,16,33,28.90
2008,07,12,16,34,28.90
2008,07,12,16,35,28.90
2008,07,12,16,36,28.90
2008,07,12,16,37,29.00
2008,07,12,16,38,29.00
2008,07,12,16,39,29.10
2008,07,12,16,40,29.20
2008,07,12,16,41,29.30
2008,07,12,16,42,29.30
2008,07,12,16,43,29.30
2008,07,12,16,44,29.30
2008,07,12,16,45,29.30
2008,07,12,16,46,29.30
2008,07,12,16,47,29.30
2008,07,12,16,48,29.20
2008,07,12,16,49,29.20
2008,07,12,16,50,29.20
2008,07,12,16,51,29.20
2008,07,12,16,52,29.20
2008,07,12,16,53,29.20
2008,07,12,16,54,29.20
2008,07,12,16,55,29.20
2008,07,12,16,56,29.20
2008,07,12,16,57,29.20
2008,07,12,16,58,29.20
2008,07,12,16,59,29.20
2008,07,12,17,00,29.20
2008,07,12,17,01,29.30
2008,07,12,17,02,29.40
2008,07,12,17,03,29.40
2008,07,12,17,04,29.40
2008,07,12,17,05,29.30
2008,07,12,17,06,29.10
2008,07,12,17,07,29.00
2008,07,12,17,08,28.90
2008,07,12,17,09,28.90
2008,07,12,17,10,28.90
2008,07,12,17,11,29.00
2008,07,12,17,12,29.10
2008,07,12,17,13,29.20
2008,07,12,17,14,29.40
2008,07,12,17,15,29.50
2008,07,12,17,16,29.60
2008,07,12,17,17,29.70
2008,07,12,17,18,29.80
2008,07,12,17,19,29.90
2008,07,12,17,20,29.90
2008,07,12,17,21,29.90
2008,07,12,17,22,29.90
2008,07,12,17,23,29.90
2008,07,12,17,24,29.80
2008,07,12,17,25,29.70
2008,07,12,17,26,29.70
2008,07,12,17,27,29.70